CUTE-1 (CO-55) 1 27844U 03031E 26126.94171881 .00000268 00000+0 13492-3 0 9995 2 27844 98.6750 136.0181 0008555 310.3751 49.6680 14.24310032185800 CUBESAT XI-IV (CO-57) 1 27848U 03031J 26126.97982924 .00000220 00000+0 11591-3 0 9996 2 27848 98.6782 135.8017 0008787 330.5693 29.4990 14.23598617185514 CUBESAT XI-V 1 28895U 05043F 26126.88576346 .00001304 00000+0 21343-3 0 9991 2 28895 98.2941 281.6544 0013518 341.7038 18.3681 14.72523641 95670 CUTE-1.7+APD II (CO-65) 1 32785U 08021C 26126.94391278 .00004458 00000+0 28544-3 0 9992 2 32785 97.8271 107.5241 0009541 158.2091 201.9545 15.09068463978974 CANX-2 1 32790U 08021H 26126.87965063 .00003780 00000+0 26828-3 0 9999 2 32790 97.8631 105.8715 0010441 174.7046 185.4293 15.05328938978597 SEEDS II (CO-66) 1 32791U 08021J 26126.92124165 .00014879 00000+0 49333-3 0 9993 2 32791 97.7531 122.8988 0005114 96.0537 264.1286 15.31363501980975 SWISSCUBE 1 35932U 09051B 26126.70651721 .00001047 00000+0 21669-3 0 9991 2 35932 98.4059 33.8701 0006668 353.9874 6.1246 14.62401470883092 BEESAT-1 1 35933U 09051C 26126.28381864 .00000859 00000+0 18256-3 0 9991 2 35933 98.3988 33.1625 0005531 12.6174 347.5164 14.61651657883062 ITUPSAT1 1 35935U 09051E 26126.99178540 .00000726 00000+0 16019-3 0 9994 2 35935 98.4074 33.1167 0007874 16.4585 343.6869 14.60378140882725 TISAT 1 1 36799U 10035E 26126.80728202 .00018364 00000+0 63105-3 0 9998 2 36799 98.0699 69.7473 0003961 63.8412 296.3234 15.30167622861373 AEROCUBE 4.5A 1 38767U 12048K 26126.36161393 .00138201 00000+0 85298-3 0 9994 2 38767 64.6299 177.3234 0020700 216.4072 143.5674 15.76192121366030 STRAND-1 1 39090U 13009E 26125.44711693 .00000308 00000+0 11814-3 0 9993 2 39090 98.3915 306.7356 0008675 7.2867 352.8445 14.37138110690920 BRITE-AUSTRIA 1 39091U 13009F 26126.06854134 .00000178 00000+0 75122-4 0 9999 2 39091 98.3987 306.5489 0010378 12.9960 347.1492 14.36525257691005 NEE-01 PEGASO 1 39151U 13018B 26126.86232262 .00002561 00000+0 24913-3 0 9995 2 39151 98.1167 269.6665 0011464 302.7152 57.2961 14.93458769704534 POPACS 2 1 39269U 13055E 26126.62791537 .00012569 00000+0 21565-3 0 9994 2 39269 80.9924 191.7319 0420027 327.4787 30.1160 14.90271332657020 POPACS 3 1 39270U 13055F 26124.39902397 .00013295 00000+0 32030-3 0 9992 2 39270 81.0007 276.6269 0555187 203.1602 154.3681 14.55035800632181 ZACUBE-1 (TSHEPISOSAT) 1 39417U 13066B 26126.87663206 .00004435 00000+0 34686-3 0 9990 2 39417 97.8129 88.9908 0042765 32.0759 328.3054 15.00867990674539 WNISAT-1 1 39423U 13066H 26126.96674385 .00000486 00000+0 97119-4 0 9990 2 39423 97.7151 279.0613 0163167 2.2676 357.9228 14.58012939660727 TRITON-1 1 39427U 13066M 26126.96426935 .00003528 00000+0 42562-3 0 9991 2 39427 97.8265 37.7111 0090732 9.7530 350.5417 14.81524504667984 GOMX-1 1 39430U 13066Q 26126.91843917 .00001945 00000+0 29840-3 0 9998 2 39430 97.6510 329.9825 0128071 209.5051 149.8887 14.69301978663859 CUBEBUG-2 (LO-74) 1 39440U 13066AA 26126.86182620 .00003161 00000+0 29638-3 0 9997 2 39440 97.8883 75.6839 0058431 162.8596 197.4615 14.93461342670824 NEE-02 KRYSAOR 1 39441U 13066AB 26126.81220304 .00001678 00000+0 18903-3 0 9999 2 39441 97.8875 66.3329 0065556 204.2354 155.5774 14.86469617670057 FUNCUBE-1 (AO-73) 1 39444U 13066AE 26126.88338251 .00006769 00000+0 42653-3 0 9995 2 39444 97.8255 97.4912 0036124 347.3050 12.7265 15.08950319673439 UWE-3 1 39446U 13066AG 26126.83645982 .00004017 00000+0 34791-3 0 9992 2 39446 97.8689 82.6523 0051329 97.1541 263.5520 14.96690140671397 BRITE-CA1 (TORONTO) 1 40020U 14033L 26126.93076207 .00000814 00000+0 12961-3 0 9992 2 40020 97.9679 256.6352 0079673 49.7321 311.0817 14.72620223636142 DUCHIFAT-1 1 40021U 14033M 26126.92279679 .00061694 00000+0 83128-3 0 9996 2 40021 98.0511 180.5445 0005390 203.5588 156.5420 15.57621953649318 NANOSATC-BR1 1 40024U 14033Q 26126.04249027 .00016955 00000+0 58334-3 0 9997 2 40024 98.0754 154.7370 0002562 359.2404 0.8831 15.30151040647539 QB50P1 1 40025U 14033R 26126.94952031 .00007222 00000+0 36237-3 0 9998 2 40025 98.0987 135.2245 0009047 19.2971 340.8601 15.17628400646771 QB50P2 1 40032U 14033Y 26126.94887650 .00005532 00000+0 30321-3 0 9990 2 40032 98.0758 121.2826 0006325 327.6096 32.4745 15.14636690646427 PERSEUS-M2 1 40037U 14033AD 26126.91288578 .00001323 00000+0 12515-3 0 9995 2 40037 97.9945 76.6258 0013191 76.9878 283.2814 14.95382312644610 PERSEUS-M1 1 40039U 14033AF 26126.82216014 .00001330 00000+0 12547-3 0 9996 2 40039 97.9623 70.2867 0012996 76.1627 284.1039 14.95494640644456 POLYITAN-1 1 40042U 14033AJ 26126.98214482 .00013878 00000+0 45338-3 0 9998 2 40042 98.0975 149.3897 0005373 294.3697 65.6981 15.31869470647285 TIGRISAT 1 40043U 14033AK 26126.94757397 .00002123 00000+0 25022-3 0 9991 2 40043 97.7786 277.9212 0048818 208.4535 151.4014 14.84988154639504 AEROCUBE 6A 1 40045U 14033AM 26126.40505359 .00006735 00000+0 57127-3 0 9997 2 40045 97.7199 293.8210 0039876 153.6669 206.6591 14.97639831640360 AEROCUBE 6B 1 40046U 14033AN 26126.91478693 .00005473 00000+0 44914-3 0 9992 2 40046 97.7179 294.0339 0037504 144.9090 215.4614 14.99075768640573 CANX-4 1 40055U 14034C 26126.60713133 .00000922 00000+0 12573-3 0 9990 2 40055 98.3175 0.3841 0013561 140.1630 220.0580 14.81188780638376 CANX-5 1 40056U 14034D 26126.60604398 .00000919 00000+0 12531-3 0 9993 2 40056 98.3178 0.4241 0013566 140.3756 219.8449 14.81205794629185 UKUBE-1 1 40074U 14037F 26126.97173305 .00006234 00000+0 35837-3 0 9995 2 40074 98.4249 125.9383 0000862 42.7679 317.3616 15.12907378642322 BRITE-PL2 (HEWELIUSZ) 1 40119U 14049B 26126.86242568 .00002402 00000+0 22803-3 0 9996 2 40119 97.9051 238.5595 0012656 243.5123 116.4800 14.94443472635270 AEROCUBE 5C 1 40965U 15058B 26126.99704301 .00003014 00000+0 27254-3 0 9993 2 40965 64.7691 30.7068 0129699 79.4568 282.1125 14.91220452359512 AEROCUBE 7 1 40966U 15058C 26126.90922904 .00004049 00000+0 33077-3 0 9995 2 40966 64.7642 14.0751 0119480 78.2241 283.2248 14.95405136359780 FOX-1A (AO-85) 1 40967U 15058D 26126.89696463 .00003178 00000+0 29081-3 0 9994 2 40967 64.7766 47.2752 0128764 72.7833 288.7326 14.90726315107416 SINOD-D 1 1 40968U 15058E 26126.89209579 .00004272 00000+0 34831-3 0 9998 2 40968 64.7769 28.1991 0117260 69.6073 291.7590 14.95581632110487 SNAP-3 ALICE 1 40970U 15058G 26126.32635446 .00072862 00000+0 11438-2 0 9992 2 40970 64.7536 247.6818 0032143 35.3031 325.0231 15.52645394110379 LMRST-SAT 1 40971U 15058H 26126.97605941 .00003028 00000+0 27932-3 0 9996 2 40971 64.7776 43.2902 0130581 74.7655 286.7851 14.90352570107418 SNAP-3 EDDIE 1 40972U 15058J 26126.28371672 .00075639 00000+0 11391-2 0 9990 2 40972 64.7455 238.8499 0032735 39.0547 321.2950 15.53748867112501 PROPCUBE 3 1 40973U 15058K 26126.84443029 .00003714 00000+0 31391-3 0 9997 2 40973 64.7704 21.6773 0122803 76.3595 285.1158 14.93975258108620 BISONSAT 1 40974U 15058L 26126.86281435 .00010238 00000+0 50957-3 0 9999 2 40974 64.7597 307.1545 0078346 65.4591 295.4674 15.15356703109358 SNAP-3 JIMI 1 40975U 15058M 26126.91057792 .00005210 00000+0 36575-3 0 9997 2 40975 64.7663 350.3251 0104792 72.4602 288.7933 15.01873710108026 PROPCUBE 1 (FLORA) 1 40976U 15058N 26126.89310448 .00002878 00000+0 27669-3 0 9996 2 40976 64.7755 63.1920 0129419 77.0838 284.4691 14.88987887110118 SINOD-D 3 1 40977U 15058P 26126.93586791 .00004014 00000+0 34443-3 0 9990 2 40977 64.7739 44.6010 0117873 74.5960 286.8139 14.93700809108599 HORYU-4 1 41340U 16012D 26126.98258830 .00141817 00000+0 84099-3 0 9996 2 41340 30.9901 16.4468 0006009 333.1799 26.8546 15.76485977564279 RAVAN 1 41849U 16067B 26126.60395093 .00037212 00000+0 63988-3 0 9999 2 41849 97.9936 11.4981 0007014 136.3430 223.8376 15.51008924521247 CELTEE 1 1 41850U 16067C 26126.58735118 .00004888 00000+0 23539-3 0 9995 2 41850 98.0725 350.3192 0002087 66.5987 293.5465 15.19278044519563 OPTICUBE 04 1 41851U 16067D 26126.51810979 .00002426 00000+0 15557-3 0 9995 2 41851 98.0743 336.6232 0014230 257.5633 102.4002 15.09486805518883 AEROCUBE 8D 1 41852U 16067E 26126.85899027 .00006100 00000+0 25649-3 0 9990 2 41852 98.0737 353.8940 0001917 283.7046 76.3976 15.23828714519774 AEROCUBE 8C 1 41853U 16067F 26126.36528554 .00007413 00000+0 30869-3 0 9999 2 41853 98.0605 350.6455 0004915 189.5863 170.5280 15.24059851519691 CORVUS BC2 1 42846U 17042X 26126.93793303 .00003568 00000+0 24834-3 0 9997 2 42846 97.4030 289.9090 0011974 251.2738 108.7191 15.06034162480856 CORVUS BC1 1 42847U 17042Y 26126.93723026 .00003914 00000+0 27082-3 0 9996 2 42847 97.4067 290.6953 0011061 225.1383 134.8947 15.06205481480883 MAKERSAT 0 1 43016U 17073D 26126.61767213 .00021461 00000+0 60223-3 0 9991 2 43016 97.4680 8.8578 0112700 61.4102 299.8423 15.30344782460106 SIRION PATHFINDER-2 1 43759U 18099B 26126.55324262 .00005340 00000+0 29589-3 0 9998 2 43759 97.4281 176.6052 0010453 86.5542 273.6885 15.14172144406325 CORVUS BC4 1 43767U 18099K 26126.57003147 .00003790 00000+0 22322-3 0 9990 2 43767 97.4099 170.7720 0009617 137.2107 222.9874 15.12160805406110 M2 PATHFINDER 1 45727U 20037E 26126.28146317 .00002992 00000+0 21812-3 0 9994 2 45727 97.8158 317.0440 0010593 297.2954 62.7192 15.04490959319196 NETSAT-4 1 46504U 20068U 26126.94842048 .00014346 00000+0 33246-3 0 9999 2 46504 97.8625 131.9221 0007662 105.8127 254.3965 15.42518655309415 NETSAT-3 1 46505U 20068V 26126.92225995 .00014800 00000+0 35728-3 0 9996 2 46505 97.8675 130.1647 0007355 118.5084 241.6902 15.41283008309326 NETSAT-1 1 46506U 20068W 26126.97782207 .00010002 00000+0 30981-3 0 9992 2 46506 97.8758 125.0290 0006380 137.5754 222.5981 15.33654398308989 NETSAT-2 1 46507U 20068X 26126.97523741 .00018977 00000+0 41379-3 0 9991 2 46507 97.8640 131.7083 0005905 125.5079 234.6720 15.44283135309371 GREENCUBE (IO-117) 1 53109U 22080E 26125.85119694 -.00000003 00000+0 00000+0 0 9991 2 53109 70.1444 312.9759 0008857 299.6529 60.3249 6.42583318 89344 SITRO-AIS 5 (KATYS) 1 57176U 23091L 26126.90411214 .00008923 00000+0 32366-3 0 9994 2 57176 97.5080 190.4371 0010257 243.1785 116.8406 15.28529735158037 SITRO-AIS 6 (CHIRKIN) 1 57192U 23091AC 26126.92146191 .00005440 00000+0 21936-3 0 9995 2 57192 97.5087 189.7865 0010447 247.2823 112.7311 15.25201258157998 SITRO-AIS 8 (ANOKHIN) 1 57193U 23091AD 26126.92559011 .00010364 00000+0 34756-3 0 9990 2 57193 97.5075 191.8855 0009553 238.3426 121.6883 15.31049626158131 SITRO-AIS 7 (FARTUSHNIY) 1 57194U 23091AE 26126.91644325 .00004866 00000+0 19828-3 0 9996 2 57194 97.5085 189.6270 0010274 248.5439 111.4703 15.24907408157981 SITRO-AIS 10 (BURDAEV) 1 57199U 23091AK 26126.92935020 .00015863 00000+0 43861-3 0 9990 2 57199 97.5095 196.5338 0006480 207.4511 152.6392 15.37092119158427 SITRO-AIS 9 (SHCHUKIN) 1 57201U 23091AM 26126.94327407 .00015145 00000+0 42500-3 0 9992 2 57201 97.5092 196.3087 0006676 208.0288 152.0597 15.36641309158412 SITRO-AIS 12 (SMIRENNIY) 1 57204U 23091AQ 26126.94158108 .00015445 00000+0 42949-3 0 9995 2 57204 97.5106 196.7489 0006479 201.3542 158.7433 15.36923083158437 SITRO-AIS 11 (SHEFFER) 1 57208U 23091AU 26126.96587446 .00015650 00000+0 42970-3 0 9994 2 57208 97.5104 196.9954 0006424 201.1923 158.9056 15.37314243158457 SITRO-AIS 25 1 59066U 24039R 26126.96677225 .00005167 00000+0 40147-3 0 9992 2 59066 95.3915 206.7720 0147627 111.9808 249.7180 14.93216718118574 SITRO-AIS 26 1 59067U 24039S 26126.96261541 .00004698 00000+0 36696-3 0 9995 2 59067 95.3915 206.6751 0147903 112.5302 249.1654 14.93020303118563 SITRO-AIS 27 1 59068U 24039T 26126.94429287 .00004297 00000+0 33311-3 0 9993 2 59068 95.3916 206.9155 0146842 111.3336 250.3636 14.93429903118586 SITRO-AIS 28 1 59071U 24039U 26126.98969233 .00004320 00000+0 33455-3 0 9997 2 59071 95.3922 206.9916 0146841 110.9879 250.7128 14.93468603118599 GRBBETA 1 60237U 24128C 26126.93419440 .00003539 00000+0 24865-3 0 9993 2 60237 61.9913 0.9648 0045941 126.0791 234.4570 15.06307055100058 OOV-CUBE (TUBSAT-30) 1 60240U 24128F 26126.93137338 .00002145 00000+0 17213-3 0 9991 2 60240 61.9965 9.4075 0049514 124.6962 235.8809 15.02567751 99910 ROBUSTA-3A (MEDITERRAN*) 1 60243U 24128J 26126.91616910 .00006417 00000+0 38513-3 0 9992 2 60243 61.9876 354.1205 0046711 119.9356 240.6390 15.11040696100184 LASARSAT 1 62391U 24247Q 26126.07908433 .00028346 00000+0 61688-3 0 9995 2 62391 44.9730 138.3452 0004596 62.9506 297.1851 15.43839906 76800 CROCUBE 1 62394U 24247T 26126.31726500 .00028873 00000+0 59578-3 0 9998 2 62394 44.9712 134.9607 0004293 65.0939 295.0397 15.45400820 76864 FORESAIL-1 PRIME 1 66778U 25276DS 26126.87709599 .00004609 00000+0 22784-3 0 9991 2 66778 97.4205 200.9136 0001224 213.5838 146.5318 15.18328128 24130 KNACKSAT-2 1 67683U 98067XZ 26126.33918814 .00035738 00000+0 49824-3 0 9999 2 67683 51.6273 144.3710 0012719 43.0910 317.1075 15.56471135 13751